Tracking 18852 objects as of 23-Nov-2017
HD Live streaming from Space Station
objects crossing your sky now

FENGYUN 1C DEB

Track FENGYUN 1C DEB now!
10-day predictions


NORAD ID: 31813
Int'l Code: 1999-025CHB
Perigee: 652.4 km
Apogee: 872.6 km
Inclination: 99.4 °
Period: 99.9 minutes
Semi major axis: 7133 km
RCS: 0.0151 m2 (small)
Launch date: May 10, 1999
Source: People's Republic of China (PRC)
Launch site: Taiyaun Space Center, China (TSC)

Note: This is SATELLITE DEBRIS
aabbcc
Your satellite tracking list
Your tracking list is empty




NASA's NSSDC Master Catalog

Two Line Element Set (TLE):
1 31813U 99025CHB 17326.46219701  .00000311  00000-0  10073-3 0  9999
2 31813  99.4284  43.6488 0154329 301.3341  57.2817 14.40939068557197
Source of the keplerian elements: AFSPC